Time,TemperatureF,DewpointF,PressureIn,WindDirection,WindDirectionDegrees,WindSpeedMPH,WindSpeedGustMPH,Humidity,HourlyPrecipIn,Conditions,Clouds,dailyrainin,SoftwareType,DateUTC
2013-07-24 00:01:00,77.0,72.0,-100.00,WSW,250,3.0,6.0,83,0.00,,,-99.99,,2013-07-24 04:01:00,
2013-07-24 00:11:00,78.0,72.0,-100.00,West,263,3.0,4.0,82,0.00,,,-99.99,,2013-07-24 04:11:00,
2013-07-24 00:32:00,77.0,72.0,-100.00,West,264,2.0,4.0,84,0.00,,,-99.99,,2013-07-24 04:32:00,
2013-07-24 00:43:00,76.0,71.0,-100.00,West,268,2.0,2.0,85,0.00,,,-99.99,,2013-07-24 04:43:00,
2013-07-24 01:02:00,76.0,71.0,-100.00,West,268,2.0,2.0,85,0.00,,,-99.99,,2013-07-24 05:02:00,
2013-07-24 01:11:00,76.0,71.0,-100.00,West,264,2.0,3.0,85,0.00,,,-99.99,,2013-07-24 05:11:00,
2013-07-24 01:33:00,76.0,71.0,-100.00,West,264,3.0,5.0,84,0.00,,,-99.99,,2013-07-24 05:33:00,
2013-07-24 01:43:00,76.0,71.0,-100.00,West,264,3.0,5.0,84,0.00,,,-99.99,,2013-07-24 05:43:00,
2013-07-24 02:01:00,76.0,70.0,-100.00,West,267,4.0,6.0,83,0.00,,,-99.99,,2013-07-24 06:01:00,
2013-07-24 02:12:00,76.0,70.0,-100.00,West,267,4.0,6.0,83,0.00,,,-99.99,,2013-07-24 06:12:00,
2013-07-24 02:24:00,76.0,70.0,-100.00,West,267,4.0,6.0,83,0.00,,,-99.99,,2013-07-24 06:24:00,
2013-07-24 02:34:00,76.0,70.0,-100.00,West,267,4.0,6.0,83,0.00,,,-99.99,,2013-07-24 06:34:00,
2013-07-24 02:43:00,76.0,70.0,-100.00,West,278,2.0,3.0,83,0.00,,,-99.99,,2013-07-24 06:43:00,
2013-07-24 02:53:00,76.0,70.0,-100.00,West,278,2.0,3.0,83,0.00,,,-99.99,,2013-07-24 06:53:00,
2013-07-24 03:02:00,76.0,70.0,-100.00,West,268,3.0,4.0,83,0.00,,,-99.99,,2013-07-24 07:02:00,
2013-07-24 03:32:00,75.0,70.0,-100.00,WSW,254,2.0,3.0,86,0.00,,,-99.99,,2013-07-24 07:32:00,
2013-07-24 03:43:00,73.0,70.0,-100.00,WSW,247,1.0,2.0,88,0.00,,,-99.99,,2013-07-24 07:43:00,
2013-07-24 03:53:00,73.0,70.0,-100.00,WSW,247,1.0,2.0,88,0.00,,,-99.99,,2013-07-24 07:53:00,
2013-07-24 04:12:00,73.0,70.0,-100.00,West,274,2.0,4.0,90,0.00,,,-99.99,,2013-07-24 08:12:00,
2013-07-24 04:32:00,73.0,70.0,-100.00,SW,232,1.0,1.0,91,0.00,,,-99.99,,2013-07-24 08:32:00,
2013-07-24 04:43:00,73.0,70.0,-100.00,SW,232,1.0,1.0,91,0.00,,,-99.99,,2013-07-24 08:43:00,
2013-07-24 05:02:00,72.0,69.0,-100.00,SW,224,1.0,1.0,91,0.00,,,-99.99,,2013-07-24 09:02:00,
2013-07-24 05:12:00,72.0,69.0,-100.00,SW,224,1.0,1.0,91,0.00,,,-99.99,,2013-07-24 09:12:00,
2013-07-24 05:22:00,71.0,69.0,-100.00,SSW,212,0.0,1.0,92,0.00,,,-99.99,,2013-07-24 09:22:00,
2013-07-24 05:32:00,71.0,69.0,-100.00,SSW,212,0.0,1.0,92,0.00,,,-99.99,,2013-07-24 09:32:00,
2013-07-24 05:43:00,71.0,69.0,-100.00,WSW,239,0.0,1.0,93,0.00,,,-99.99,,2013-07-24 09:43:00,
2013-07-24 05:53:00,71.0,69.0,-100.00,WSW,239,0.0,1.0,93,0.00,,,-99.99,,2013-07-24 09:53:00,
2013-07-24 06:02:00,71.0,69.0,-100.00,WSW,246,1.0,2.0,93,0.00,,,-99.99,,2013-07-24 10:02:00,
2013-07-24 06:12:00,71.0,69.0,-100.00,WSW,246,1.0,2.0,93,0.00,,,-99.99,,2013-07-24 10:12:00,
2013-07-24 06:22:00,71.0,69.0,-100.00,WSW,246,1.0,2.0,93,0.00,,,-99.99,,2013-07-24 10:22:00,
2013-07-24 06:33:00,71.0,69.0,-100.00,WSW,246,1.0,2.0,93,0.00,,,-99.99,,2013-07-24 10:33:00,
2013-07-24 06:43:00,71.0,69.0,-100.00,WSW,254,0.0,1.0,93,0.00,,,-99.99,,2013-07-24 10:43:00,
2013-07-24 06:53:00,71.0,69.0,-100.00,WSW,240,1.0,2.0,93,0.00,,,-99.99,,2013-07-24 10:53:00,
2013-07-24 07:02:00,71.0,69.0,-100.00,South,174,1.0,2.0,93,0.00,,,-99.99,,2013-07-24 11:02:00,
2013-07-24 07:12:00,71.0,69.0,-100.00,South,174,1.0,2.0,93,0.00,,,-99.99,,2013-07-24 11:12:00,
2013-07-24 07:22:00,71.0,69.0,-100.00,South,174,1.0,2.0,93,0.00,,,-99.99,,2013-07-24 11:22:00,
2013-07-24 07:32:00,71.0,69.0,-100.00,West,270,2.0,3.0,93,0.00,,,-99.99,,2013-07-24 11:32:00,
2013-07-24 07:44:00,71.0,69.0,-100.00,West,270,2.0,3.0,93,0.00,,,-99.99,,2013-07-24 11:44:00,
2013-07-24 08:12:00,73.0,69.0,-100.00,West,265,1.0,3.0,89,0.00,,,-99.99,,2013-07-24 12:12:00,
2013-07-24 08:32:00,75.0,70.0,-100.00,West,264,2.0,3.0,84,0.00,,,-99.99,,2013-07-24 12:32:00,
2013-07-24 08:42:00,75.0,70.0,-100.00,West,264,2.0,3.0,84,0.00,,,-99.99,,2013-07-24 12:42:00,
2013-07-24 09:02:00,76.0,69.0,-100.00,NW,312,4.0,7.0,77,0.00,,,-99.99,,2013-07-24 13:02:00,
2013-07-24 09:12:00,78.0,69.0,-100.00,NNW,339,4.0,7.0,73,0.00,,,-99.99,,2013-07-24 13:12:00,
2013-07-24 09:22:00,78.0,69.0,-100.00,NNW,339,4.0,7.0,73,0.00,,,-99.99,,2013-07-24 13:22:00,
2013-07-24 09:32:00,78.0,69.0,-100.00,NNW,339,4.0,7.0,73,0.00,,,-99.99,,2013-07-24 13:32:00,
2013-07-24 09:43:00,80.0,70.0,-100.00,NW,315,5.0,8.0,71,0.00,,,-99.99,,2013-07-24 13:43:00,
2013-07-24 09:53:00,83.0,70.0,-100.00,WNW,299,2.0,3.0,65,0.00,,,-99.99,,2013-07-24 13:53:00,
2013-07-24 10:00:00,85.0,71.0,-100.00,NW,312,3.0,6.0,62,0.00,,,-99.99,,2013-07-24 14:00:00,
2013-07-24 10:02:00,83.0,70.0,-100.00,NNW,335,5.0,7.0,65,0.00,,,-99.99,,2013-07-24 14:02:00,
2013-07-24 10:22:00,83.0,70.0,-100.00,NNW,335,5.0,7.0,65,0.00,,,-99.99,,2013-07-24 14:22:00,
2013-07-24 10:32:00,85.0,71.0,-100.00,NW,312,3.0,6.0,62,0.00,,,-99.99,,2013-07-24 14:32:00,
2013-07-24 10:43:00,85.0,71.0,-100.00,NW,312,3.0,6.0,62,0.00,,,-99.99,,2013-07-24 14:43:00,
2013-07-24 11:12:00,86.0,69.0,-100.00,NW,325,5.0,9.0,57,0.00,,,-99.99,,2013-07-24 15:12:00,
2013-07-24 11:20:00,87.0,69.0,-100.00,North,352,5.0,9.0,55,0.00,,,-99.99,,2013-07-24 15:20:00,
2013-07-24 11:22:00,86.0,69.0,-100.00,NW,325,5.0,9.0,57,0.00,,,-99.99,,2013-07-24 15:22:00,
2013-07-24 11:33:00,86.0,69.0,-100.00,NNW,346,6.0,10.0,57,0.00,,,-99.99,,2013-07-24 15:33:00,
2013-07-24 11:43:00,87.0,69.0,-100.00,North,352,5.0,9.0,55,0.00,,,-99.99,,2013-07-24 15:43:00,
2013-07-24 11:53:00,87.0,69.0,-100.00,North,352,5.0,9.0,55,0.00,,,-99.99,,2013-07-24 15:53:00,
2013-07-24 12:00:00,88.0,69.0,-100.00,NNW,333,4.0,7.0,54,0.00,,,-99.99,,2013-07-24 16:00:00,
2013-07-24 12:02:00,87.0,69.0,-100.00,North,352,5.0,9.0,55,0.00,,,-99.99,,2013-07-24 16:02:00,
2013-07-24 12:43:00,88.0,69.0,-100.00,NNW,333,4.0,7.0,54,0.00,,,-99.99,,2013-07-24 16:43:00,
2013-07-24 12:53:00,88.0,69.0,-100.00,NNW,333,4.0,7.0,54,0.00,,,-99.99,,2013-07-24 16:53:00,
2013-07-24 13:12:00,87.0,71.0,-100.00,ENE,59,4.0,8.0,58,0.00,,,-99.99,,2013-07-24 17:12:00,
2013-07-24 13:22:00,87.0,71.0,-100.00,ENE,59,4.0,8.0,58,0.00,,,-99.99,,2013-07-24 17:22:00,
2013-07-24 13:43:00,88.0,70.0,-100.00,NE,54,3.0,5.0,56,0.00,,,-99.99,,2013-07-24 17:43:00,
2013-07-24 13:53:00,90.0,71.0,-100.00,ENE,59,4.0,5.0,55,0.00,,,-99.99,,2013-07-24 17:53:00,
2013-07-24 14:03:00,90.0,71.0,-100.00,ENE,59,4.0,5.0,55,0.00,,,-99.99,,2013-07-24 18:03:00,
2013-07-24 14:22:00,88.0,70.0,-100.00,ENE,58,2.0,4.0,56,0.00,,,-99.99,,2013-07-24 18:22:00,
2013-07-24 14:33:00,88.0,70.0,-100.00,ENE,58,2.0,4.0,56,0.00,,,-99.99,,2013-07-24 18:33:00,
2013-07-24 14:52:00,88.0,70.0,-100.00,ENE,58,5.0,7.0,55,0.00,,,-99.99,,2013-07-24 18:52:00,
2013-07-24 15:03:00,89.0,71.0,-100.00,ENE,68,3.0,5.0,56,0.00,,,-99.99,,2013-07-24 19:03:00,
2013-07-24 15:12:00,89.0,71.0,-100.00,ENE,68,3.0,5.0,56,0.00,,,-99.99,,2013-07-24 19:12:00,
2013-07-24 15:22:00,89.0,71.0,-100.00,ENE,68,3.0,5.0,56,0.00,,,-99.99,,2013-07-24 19:22:00,
2013-07-24 15:33:00,90.0,71.0,-100.00,NE,41,1.0,3.0,52,0.00,,,-99.99,,2013-07-24 19:33:00,
2013-07-24 15:43:00,89.0,71.0,-100.00,NE,49,4.0,5.0,55,0.00,,,-99.99,,2013-07-24 19:43:00,
2013-07-24 15:53:00,89.0,71.0,-100.00,NE,49,4.0,5.0,55,0.00,,,-99.99,,2013-07-24 19:53:00,
2013-07-24 16:00:00,89.0,71.0,-100.00,NE,41,2.0,4.0,57,0.00,,,-99.99,,2013-07-24 20:00:00,
2013-07-24 16:02:00,90.0,70.0,-100.00,NE,49,4.0,8.0,53,0.00,,,-99.99,,2013-07-24 20:02:00,
2013-07-24 16:13:00,90.0,70.0,-100.00,NE,49,4.0,8.0,53,0.00,,,-99.99,,2013-07-24 20:13:00,
2013-07-24 16:23:00,89.0,71.0,-100.00,NE,41,2.0,4.0,57,0.00,,,-99.99,,2013-07-24 20:23:00,
2013-07-24 16:33:00,89.0,71.0,-100.00,NE,41,2.0,4.0,57,0.00,,,-99.99,,2013-07-24 20:33:00,
2013-07-24 16:40:00,89.0,73.0,-100.00,NE,35,4.0,6.0,58,0.00,,,-99.99,,2013-07-24 20:40:00,
2013-07-24 16:43:00,89.0,71.0,-100.00,NE,41,2.0,4.0,57,0.00,,,-99.99,,2013-07-24 20:43:00,
2013-07-24 16:53:00,89.0,71.0,-100.00,NE,41,2.0,4.0,57,0.00,,,-99.99,,2013-07-24 20:53:00,
2013-07-24 17:12:00,89.0,73.0,-100.00,NE,35,4.0,6.0,58,0.00,,,-99.99,,2013-07-24 21:12:00,
2013-07-24 17:22:00,89.0,73.0,-100.00,NE,35,4.0,6.0,58,0.00,,,-99.99,,2013-07-24 21:22:00,
2013-07-24 17:32:00,89.0,73.0,-100.00,NE,35,4.0,6.0,58,0.00,,,-99.99,,2013-07-24 21:32:00,
2013-07-24 21:32:00,76.0,68.0,-100.00,East,83,1.0,3.0,77,0.00,,,-99.99,,2013-07-25 01:32:00,
2013-07-24 21:40:00,75.0,69.0,-100.00,ESE,112,2.0,3.0,83,0.00,,,-99.99,,2013-07-25 01:40:00,
2013-07-24 21:43:00,76.0,68.0,-100.00,East,83,1.0,3.0,77,0.00,,,-99.99,,2013-07-25 01:43:00,
2013-07-24 22:02:00,76.0,69.0,-100.00,ESE,103,2.0,3.0,78,0.00,,,-99.99,,2013-07-25 02:02:00,
2013-07-24 22:12:00,75.0,69.0,-100.00,ESE,112,2.0,3.0,83,0.00,,,-99.99,,2013-07-25 02:12:00,
2013-07-24 22:22:00,75.0,69.0,-100.00,ESE,112,2.0,3.0,83,0.00,,,-99.99,,2013-07-25 02:22:00,
2013-07-24 22:33:00,75.0,69.0,-100.00,ESE,112,2.0,3.0,83,0.00,,,-99.99,,2013-07-25 02:33:00,
2013-07-24 23:16:00,73.0,68.0,-100.00,SSE,157,1.0,2.0,84,0.00,,,-99.99,,2013-07-25 03:16:00,
2013-07-24 23:39:00,74.0,69.0,-100.00,ESE,106,0.0,1.0,85,0.00,,,-99.99,,2013-07-25 03:39:00,
2013-07-24 23:44:00,74.0,69.0,-100.00,ESE,106,0.0,1.0,85,0.00,,,-99.99,,2013-07-25 03:44:00,